Погода в Тейково

Россия / Ивановская область     56°51′15″N   40°32′07″E
темп.,
°C
ветер,
м/с
пор.,
м/с
влажн.,
%
обл.,
%
осадки,
мм/ч
давл.,
гПа
погр.,
м
14 мая, пт
пт1400:00+10ю249724 0.0 101880
03:00+9ююз119422 0.0 101913
06:00+11ю139236 0.0 101991
09:00+16ю2472100 0.0 1018545
12:00+19юв356582 0.1 1018863
15:00+21ююв356488 1.6 10161312
18:00+16ююз1284100 2.1 101516
21:00+14вюв3994100 5.5 1014199
15 мая, сб
сб1500:00+14юв31197100 1.7 1014279
03:00+13юв31097100 1.9 1013214
06:00+15ююв3896100 0.1 1012211
09:00+18юв61389100 2.3 1012712
12:00+21ююв5979100 0.9 1010622
15:00+18ю61384100 6.9 1010806
18:00+20ююз410800 0.4 1010782
21:00+15ю3129421 1.4 1011324
16 мая, вс
вс1600:00+13ю3109666 0.0 1011236
03:00+12ю39970 0.0 1012214
06:00+13ю38950 0.0 1012277
09:00+18ююз48755 0.0 1013778
12:00+21ююз695516 0.0 10131749
15:00+22ююз6105211 0.0 10132309
18:00+18юз510775 1.3 1013717
21:00+13ююз210950 1.6 1014212
17 мая, пн
пн1700:00+12юз239599 0.0 101549
03:00+12ююз1195100 0.0 101614
06:00+14юз1189100 0.0 101647
09:00+19юв236999 0.0 1016485
12:00+23юв235099 0.0 10161168
15:00+25вюв355098 0.0 10141413
18:00+24в376425 0.0 1013473
21:00+18вюв389195 0.0 1012146
18 мая, вт
вт1800:00+15юв398451 0.0 1012157
03:00+14юв389477 0.0 1012145
06:00+16юв3137691 0.0 1011325
09:00+23юв5145063 0.0 1010659
12:00+26ююв610398 0.0 10101090
15:00+28ююв511386 0.0 10092495
18:00+24ююв51147100 0.0 1008951
21:00+17ююв248198 0.3 100966